Location: Gesvres
(49.0440°N, 2.8518°E)
Time: 19:03:54
(UTC+00:00)

Daily predictions for brighter satellites

Satellite Brightness Start Highest point End
(mag) Time Altitude Azimuth Time Altitude Azimuth Time Altitude Azimuth
NOSS 2-1 (C) 4.3 17:03:33 10° NNW 17:07:18 36° NE 17:12:18 10° ESE
CORIOLIS 4.2 17:01:56 10° SSE 17:07:22 82° ENE 17:12:49 10° NNW
Meteor 1-24 Rocket 3.7 17:05:08 10° S 17:10:51 73° E 17:16:24 10° NNE
Cosmos 2263 Rocket 2.6 17:08:50 10° NNW 17:14:06 40° NE 17:19:19 10° ESE
ATLAS 5 CENTAUR R/B 1.7 17:11:22 10° WSW 17:14:58 58° NW 17:19:06 10° NE
Lacrosse 4 Rocket 4.1 17:13:55 10° NW 17:15:02 11° NNW 17:16:09 10° N
NOSS 2-1 (D) 4.2 17:11:49 10° NNW 17:15:39 40° NE 17:20:48 10° ESE
Okean O Rocket 3.4 17:14:09 10° ENE 17:15:49 12° NE 17:17:30 10° NNE
Meteor 2-5 Rocket 3.9 17:14:56 10° S 17:20:48 87° W 17:26:36 10° NNE
Cosmos 1656 4.2 17:16:13 10° SW 17:21:38 58° WNW 17:27:03 10° NNE
CZ-2C R/B 3.8 17:16:57 10° N 17:22:10 46° WNW 17:27:27 10° SW
Cosmos 2082 3.7 17:17:01 10° NNW 17:22:39 65° ENE 17:28:13 10° SE
CZ-4C R/B 4.4 17:20:16 10° NE 17:23:35 25° E 17:26:46 10° SSE
Cosmos 1544 Rocket 3.9 17:20:38 10° N 17:24:47 42° ENE 17:28:53 10° SSE
SL-08 R/B 3.4 17:20:08 10° NNE 17:25:02 66° ESE 17:29:57 10° S
Cosmos 2228 4.2 17:21:57 10° NNE 17:25:06 20° ENE 17:28:12 10° ESE
DELTA 2 DEB (DPAF) 4.2 17:22:27 10° NNE 17:26:49 61° ESE 17:31:08 10° S
ATLAS 2AS CENTAUR R/B 3.4 17:21:06 10° NW 17:27:39 35° NNE 17:33:50 10° E
Cosmos 2279 Rocket 4.0 17:25:16 10° S 17:31:26 75° E 17:37:38 10° NNE
H-2A R/B 4.4 17:29:15 10° SSW 17:33:39 28° W 17:38:11 10° NW
ISS -3.4 17:30:58 10° WNW 17:34:18 53° N 17:37:02 14° E
CZ-4B R/B 3.9 17:32:44 10° ESE 17:37:18 30° ENE 17:41:56 10° N
Cosmos 1455 Rocket 3.4 17:33:50 10° NNW 17:38:12 68° W 17:42:29 10° S
Cosmos 1867 3.7 17:36:37 10° NW 17:42:07 84° SW 17:47:33 10° SE
ATLAS CENTAUR R/B 2.7 17:38:19 10° S 17:42:20 28° ESE 17:45:16 15° ENE
Cosmos 614 Rocket 4.0 17:37:17 10° SSW 17:42:31 88° WNW 17:47:45 10° NNE
SMAP 4.4 17:38:14 10° S 17:42:41 44° W 17:47:10 10° NNW
NOSS 3-4 (A) 4.1 17:37:22 10° NW 17:44:15 76° SW 17:52:07 10° SSE
NOSS 3-4 (C) 4.1 17:37:28 10° NW 17:44:21 76° SW 17:52:14 10° SSE
Cosmos 1269 Rocket 4.5 17:39:24 10° SSW 17:44:40 65° WNW 17:49:57 10° NNE
Cosmos 407 Rocket 4.3 17:41:49 10° SSE 17:46:11 29° E 17:50:15 11° NE
Cosmos 1844 Rocket 3.9 17:42:28 10° N 17:46:40 21° NE 17:49:18 16° ENE
Cosmos 2360 4.4 17:41:56 10° SW 17:47:37 75° WNW 17:53:21 10° NNE
Cosmos 2278 4.5 17:42:49 10° SSE 17:47:42 31° ESE 17:52:09 12° NE
SKYMED 2 3.6 17:45:34 10° NNE 17:49:52 56° E 17:54:08 10° S
NOAA 6 4.4 17:46:33 10° S 17:51:40 69° WSW 17:56:51 10° NNW
Tiangong 0.6 17:51:05 10° SW 17:53:00 15° SSW 17:54:55 10° SSE
Meteor 2-17 Rocket 4.4 17:47:34 10° N 17:53:47 83° E 17:59:57 10° S
SL-4 R/B 1.9 17:53:08 10° SW 17:56:32 53° SSE 17:58:33 23° E
Cosmos 1340 Rocket 3.1 17:55:33 10° SSE 17:59:09 39° E 18:02:48 10° NNE
Cosmos 1408 3.3 17:56:47 10° SSE 17:59:42 28° E 18:00:40 24° ENE
USA 290 2.9 17:57:58 10° S 18:00:57 34° ESE 18:02:01 27° ENE
BREEZE-M DEB (TANK) 3.0 18:00:21 10° WSW 18:03:23 56° SSE 18:07:22 19° E
Cosmos 1238 Rocket 4.4 18:02:19 10° NNW 18:06:38 49° W 18:11:45 10° SSW
PAYLOAD B 4.1 18:03:11 10° SSE 18:08:40 69° ENE 18:14:09 10° N
Cosmos 1655 Rocket 3.9 18:03:12 10° N 18:09:32 80° E 18:15:46 10° SSE
YAOGAN 1 2.6 18:05:35 10° SSE 18:09:46 52° ENE 18:13:58 10° N
NOSS 2-1 (E) 3.8 18:05:42 10° NW 18:09:59 84° NE 18:16:09 10° SE
Cosmos 2322 Rocket 3.6 18:06:46 10° SE 18:09:28 17° ESE 18:09:28 17° ESE
Cosmos 1607 4.0 18:05:34 10° SSW 18:11:33 58° ESE 18:16:06 18° NE
Cosmos 1140 Rocket 3.6 18:06:33 10° S 18:11:35 54° ESE 18:16:04 13° NNE
Cosmos 1703 3.7 18:08:42 10° SSW 18:12:29 60° WNW 18:16:17 10° N
SL-08 ROCKET BODY 4.4 18:07:00 10° N 18:12:49 54° ENE 18:18:31 10° SSE
CZ-4 R/B 1.9 18:12:28 10° SE 18:16:20 38° ENE 18:20:10 10° N
Cosmos 1184 Rocket 3.1 18:15:09 10° N 18:16:38 32° N 18:16:38 32° N
Cosmos 1536 Rocket 3.4 18:15:34 10° S 18:19:51 70° E 18:24:10 10° NNE
SL-16 R/B 3.0 18:15:30 10° SSE 18:20:19 30° ESE 18:21:32 27° E
Cosmos 1023 Rocket 4.4 18:16:08 10° S 18:21:16 68° ESE 18:25:41 14° NNE
COSMOS 2455 2.8 18:16:58 10° SW 18:22:59 87° WNW 18:28:06 15° NE
Cosmos 2369 3.9 18:23:22 10° SW 18:29:00 73° WNW 18:34:32 11° NNE
Cosmos 44 3.3 18:25:02 10° SW 18:29:20 68° NW 18:32:00 24° NNE
Cosmos 1892 3.2 18:26:38 10° SSE 18:29:28 38° SE 18:29:28 38° SE
Cosmos 1606 Rocket 3.6 18:29:09 10° N 18:33:22 51° ENE 18:35:45 24° SE
RESURS DK-1 4.2 18:31:39 10° N 18:33:19 17° NNE 18:33:19 17° NNE
NOAA 15 4.5 18:29:45 10° SSE 18:34:59 86° ENE 18:40:18 10° NNW
Cosmos 2251 Rocket 3.6 18:29:56 10° SSW 18:35:17 84° WNW 18:40:21 12° NNE
Cosmos 468 Rocket 4.3 18:32:15 10° NNW 18:37:12 42° ENE 18:37:59 39° E
COSMO-SKYMED 1 3.5 18:33:41 10° N 18:37:54 49° WNW 18:42:06 10° SW
Cosmos 1980 Rocket 2.6 18:34:45 10° SW 18:40:21 62° WNW 18:45:36 12° NNE
Meteor 1-11 4.3 18:37:42 10° S 18:43:22 56° E 18:49:02 10° NNE
Lacrosse 5 3.6 18:40:18 10° S 18:42:20 17° SSE 18:42:20 17° SSE
Cosmos 1241 Rocket 4.5 18:38:29 10° SSW 18:44:59 82° SE 18:49:05 25° NE
Cosmos 1328 3.9 18:41:28 10° SSW 18:45:28 74° W 18:48:48 14° N
BlueWalker 3 1.8 18:42:32 10° WSW 18:46:26 80° NNW 18:46:49 69° NE
Cosmos 1697 Rocket 4.2 18:43:42 10° WSW 18:48:44 32° NW 18:53:48 10° NNE
Lacrosse 5 rocket 2.6 18:45:52 10° NW 18:48:24 25° N 18:48:24 25° N
CSL-04 Rocket 3.9 18:50:17 43° ENE 18:50:17 43° ENE 18:55:09 10° N
Okean O Rocket 1.4 18:47:21 12° SSE 18:51:25 81° ENE 18:55:50 10° NNW
IRIDIUM 103 4.3 18:47:40 10° N 18:52:48 55° E 18:54:31 38° SE
Feng Yun 1-1 Rocket 4.1 18:48:47 10° SSE 18:54:25 77° ENE 18:59:56 10° NNW
Cosmos 2263 Rocket 3.5 18:52:52 10° NW 18:58:02 40° WSW 19:03:09 10° S
Timation 2 Rocket 4.5 18:52:46 10° NW 18:58:50 60° WSW 19:05:07 10° S
MINOTAUR 4 R/B 4.4 18:59:27 59° WSW 18:59:27 59° WSW 19:02:25 10° SSW
ATLAS 5 CENTAUR R/B 3.6 18:57:41 10° WNW 19:00:23 17° NNW 19:01:38 15° N
BREEZE M DEB (TANK) 4.2 18:57:12 10° W 19:00:52 25° SW 19:01:26 24° SSW
Cosmos 1553 Rocket 3.9 18:55:57 10° SSE 19:01:50 54° E 19:07:46 10° NNE
Cosmos 2228 4.0 18:58:46 10° NNW 19:02:49 45° W 19:06:50 10° SSW
Cosmos 1763 Rocket 3.3 18:59:35 10° NNW 19:04:50 81° ENE 19:05:58 55° SE
Cosmos 1726 Rocket 3.8 19:03:41 10° N 19:07:07 55° N 19:07:07 55° N
IRIDIUM 106 4.1 19:05:54 10° N 19:11:10 77° E 19:12:35 49° SSE
ISS -2.2 19:07:48 10° WNW 19:09:56 36° W 19:09:56 36° W
SL-08 R/B 4.3 19:06:26 10° N 19:12:40 76° E 19:17:34 17° SSE
CZ-4B R/B 4.0 19:12:31 10° S 19:17:39 48° W 19:22:53 10° NNW
ATLAS 2AS CENTAUR R/B 2.6 19:12:16 10° NW 19:19:23 87° SW 19:21:32 48° SE
Cosmos 676 Rocket 4.5 19:14:34 10° S 19:18:23 47° S 19:18:23 47° S
ATLAS CENTAUR R/B 2.2 19:16:06 10° WSW 19:20:43 52° NW 19:21:07 50° NNW
Cosmos 407 Rocket 4.4 19:23:01 10° SW 19:27:58 45° WNW 19:30:30 26° N
Cosmos 1844 3.7 19:22:10 10° NNW 19:27:34 71° NNE 19:27:34 71° NNE
Cosmos 1844 Rocket 2.6 19:25:45 10° NNW 19:31:01 79° NNW 19:31:01 79° NNW
Cosmos 2278 4.4 19:26:05 10° SW 19:31:36 51° NW 19:34:06 31° N
SL-4 R/B 3.9 19:32:17 10° W 19:33:53 25° W 19:33:53 25° W
Cosmos 540 Rocket 3.9 19:31:27 10° NNW 19:35:25 53° NNW 19:35:25 53° NNW
Cosmos 2360 Rocket 4.1 19:40:08 10° SSW 19:41:22 17° S 19:41:22 17° S
Cosmos 2278 Rocket 4.2 19:42:03 10° N 19:43:40 16° N 19:43:40 16° N
CZ-4 R/B 3.7 19:47:59 10° SSW 19:51:19 23° W 19:54:40 10° NW
Cosmos 2322 Rocket 3.2 19:48:02 10° SSW 19:51:22 37° SW 19:51:22 37° SW
SL-16 R/B 2.9 19:58:37 10° SW 20:03:27 50° W 20:03:27 50° W
